RASCOM-QAF 1R

Last updated on Tue Sep 22 2026 00:03:11 GMT+0000 (Coordinated Universal Time)

1 36831U 10037B 26264.34711005 .00000015 00000+0 00000+0 0 9997 2 36831 0.0308 110.8689 0005123 70.9086 306.3254 1.00273207 59276
UTC large
Height (km)
Speed (km/s)
/
Latitude / Longitude
Inclination (degrees)
Orbital Period (minutes)
Azimuth
Elevation
Range (km)
Doppler Factor

Next 0 passes for location: London (51.5072 / 0.1276)

No passes found over London.
RASCOM-QAF 1R